Location: *
(58.7167°N, 26.1833°E)
Time: 05:39:31
(UTC+00:00)

Cosmos 1544 - Pass Details

Date: 25 August 2019
Orbit: 473 x 493 km, 82.5° (Epoch: 14 September)

Event Time Altitude Azimuth Distance (km) Brightness Sun altitude
Exits shadow 21:29:41 36° 243° (WSW) 777 3.9 -20.0°
Maximum altitude 21:30:40 47° 289° (WNW) 644 3.8 -20.0°
Drops below altitude 10° 21:34:12 10° 5° (N) 1,662 6.9 -20.1°
Sets 21:36:21 0° 11° (N) 2,543 7.9 -20.2°
